Effective Sunday, March 17, 2024, the National Weather Service National Data Buoy Center will discontinue its Dial-A-Buoy Interactive Voice Response system. For more information, see Service Change Notice 24-06 (PDF).

Station 51001 (LLNR 28006) - NORTHWESTERN HAWAII ONE - 188 NM NW of Kauai Island, HI Image indicating link to RSS feed of recent meteorological observations for station 51001


Conditions at 51001 as of
(1:30 am HAST)
1130 GMT on 02/25/2024:
     

Click on the graph icon in the table below to see a time series plot of the last five days of that observation.

5-day plot - Wind Direction Wind Direction (WDIR):ESE ( 110 deg true )
5-day plot - Wind Speed Wind Speed (WSPD): 19.4 kts
5-day plot - Wind Gust Wind Gust (GST): 27.2 kts
5-day plot - Atmospheric Pressure Atmospheric Pressure (PRES):30.10 in
5-day plot - Air Temperature Air Temperature (ATMP): 72.5 °F
5-day plot - Water Temperature Water Temperature (WTMP): 72.9 °F
5-day plot - Dew Point Dew Point (DEWP): 64.9 °F
5-day plot - Wind Speed at 10 Meters Wind Speed at 10 meters (WSPD10M): 23.3 kts
5-day plot - Wind Speed at 20 Meters Wind Speed at 20 meters (WSPD20M): 23.3 kts
5-day plot -  Wind Speed, Wind Gust and Atmospheric Pressure Combined plot of Wind Speed, Gust, and Air Pressure
Supplemental Measurements
Highest 1-minute Wind Speed
Time (HAST)5-day plot - 1-Minute Wind Speed WSPD 5-day plot - 1-Minute Wind Direction WDIR
1:28 am 23.3 kts-
Previous observations
TIME
(HAST)
5-day plot - Wind Direction
WDIR
 
5-day plot - Wind Speed
WSPD
kts
5-day plot - Wind Gust
GST
kts
5-day plot - Wave Height
WVHT
ft
5-day plot - Dominant Wave Period
DPD
sec
5-day plot - Average Wave Period
APD
sec
5-day plot - Mean Wave Direction
MWD
 
5-day plot - Atmospheric Pressure
PRES
in
5-day plot - Pressure Tendency
PTDY
in
5-day plot - Air Temperature
ATMP
°F
5-day plot - Water Temperature
WTMP
°F
5-day plot - Dew Point
DEWP
°F
5-day plot - Salinity
SAL
psu
5-day plot - Visibility
VIS
nmi
5-day plot - Tide (above MLLW)
TIDE
ft
2024-02-25 01:20 amESE 21.4 25.3 12.1 87.3 E30.11- 72.3 72.9 64.8---
2024-02-25 01:10 am E 21.4 27.2 12.1-7.3 E30.10- 72.3 72.9 65.3---
2024-02-25 01:00 am E 21.4 27.2----30.09-0.01 72.5 72.9 65.7---
2024-02-25 12:50 am E 21.4 27.2 11.5 97.1 E30.10- 72.5 72.9 65.5---
2024-02-25 12:40 amESE 21.4 27.2----30.11- 72.5 72.9 66.0---
2024-02-25 12:30 am E 21.4 29.1----30.11- 72.3 72.9 65.8---
2024-02-25 12:20 am E 19.4 25.3 10.8 86.9ESE30.11- 72.1 72.9 66.6---
2024-02-25 12:10 amESE 21.4 27.2 10.8-6.9ESE30.11- 72.3 72.9 66.4---
2024-02-25 12:00 amESE 21.4 25.3----30.11+0.03 72.5 72.9 65.8---
2024-02-24 11:50 pm E 21.4 27.2 11.2 97.1 E30.10- 72.5 72.9 65.7---
2024-02-24 11:40 pmESE 21.4 29.1----30.11- 72.5 72.9 65.8---
2024-02-24 11:30 pm E 21.4 27.2----30.11- 72.5 72.9 66.4---
2024-02-24 11:20 pm E 21.4 27.2 11.5 167.5 N30.10- 72.5 72.9 66.4---
2024-02-24 11:10 pm E 21.4 27.2 11.5-7.5 N30.11- 72.5 72.9 66.6---
2024-02-24 11:00 pm E 21.4 27.2----30.10+0.02 72.1 72.9 66.6---
2024-02-24 10:50 pm E 19.4 25.3 10.2 97.0 E30.11- 71.8 72.9 67.1---
2024-02-24 10:40 pmESE 21.4 27.2----30.12- 72.1 72.9 66.9---
2024-02-24 10:30 pm E 21.4 29.1----30.11- 72.0 72.9 67.1---
2024-02-24 10:20 pm E 21.4 25.3 10.5 97.0 E30.11- 71.2 72.9 66.9---
2024-02-24 10:10 pm E 19.4 25.3 10.5-7.0 E30.10- 71.2 72.9 67.3---
2024-02-24 10:00 pmESE 23.3 29.1----30.11+0.05 71.6 72.9 67.3---
2024-02-24 09:50 pmESE 23.3 29.1 10.8 167.1 N30.10- 72.3 72.9 66.9---
2024-02-24 09:40 pmESE 21.4 27.2----30.10- 72.5 72.9 67.1---
2024-02-24 09:30 pmESE 23.3 29.1----30.09- 72.5 72.9 66.7---
2024-02-24 09:20 pmESE 21.4 29.1 12.5 167.8 N30.09- 72.5 72.9 66.7---
2024-02-24 09:10 pmESE 21.4 27.2 12.5-7.8 N30.09- 71.8 72.9 66.9---
2024-02-24 09:00 pmESE 19.4 29.1----30.09+0.03 71.2- 66.9---
2024-02-24 08:50 pmESE 17.5 25.3 10.8 97.3 E30.09- 71.1 72.9 67.5---
2024-02-24 08:40 pmESE 21.4 29.1 10.8-7.3 E30.09- 71.6 72.9 66.9---
2024-02-24 08:30 pmESE 21.4 29.1----30.09- 72.7 72.9 66.6---
2024-02-24 08:20 pm E 19.4 25.3 11.5 87.3 E30.09- 72.5 72.9 66.7---
2024-02-24 08:10 pmESE 21.4 25.3 11.5-7.3 E30.08- 72.7- 66.7---
2024-02-24 08:00 pmESE 19.4 27.2----30.08+0.04 72.7 72.9 67.1---
2024-02-24 07:50 pmESE 21.4 27.2 11.8 167.6 N30.08- 72.7 72.9 66.9---
2024-02-24 07:40 pmESE 21.4 27.2----30.08- 72.5 72.9 66.7---
2024-02-24 07:30 pmESE 23.3 29.1----30.06- 72.5 72.9 66.6---
2024-02-24 07:20 pmESE 21.4 27.2 10.5 97.1 E30.06- 72.5 72.9 66.7---
2024-02-24 07:10 pmESE 21.4 27.2 10.5-7.1 E30.06- 72.5 72.9 66.7---
2024-02-24 07:00 pmESE 23.3 29.1----30.06+0.03 72.3- 66.6---
2024-02-24 06:50 pmESE 21.4 27.2 11.2 97.1 E30.06- 72.1 72.9 66.7---
2024-02-24 06:40 pmESE 23.3 27.2----30.06- 72.0 72.9 66.6---
2024-02-24 06:30 pmESE 21.4 27.2----30.06- 72.0 72.9 66.9---
2024-02-24 06:20 pm E 21.4 27.2 11.2 177.1 N30.06- 71.8 73.0 67.1---
2024-02-24 06:10 pmESE 19.4 27.2 11.2-7.1 N30.05- 71.4 73.0 67.5---
2024-02-24 06:00 pmESE 19.4 23.3----30.05+0.02 70.3 73.0 67.5---
2024-02-24 05:50 pmESE 21.4 29.1 11.8 97.4 E30.05- 70.7 73.0 67.6---
2024-02-24 05:40 pmESE 23.3 29.1----30.05- 71.4 73.0 67.3---
2024-02-24 05:30 pmESE 21.4 27.2----30.04- 71.8 73.0 67.5---
2024-02-24 05:20 pmESE 21.4 27.2 12.1 97.4 E30.04- 71.6 73.0 67.3---
2024-02-24 05:10 pmESE 21.4 27.2 12.1-7.4 E30.04- 71.4 73.0 67.5---
2024-02-24 05:00 pmESE 21.4 27.2----30.04+0.00 71.4 73.0 67.5---
2024-02-24 04:50 pmESE 21.4 29.1 11.5 97.1ENE30.04- 71.4 73.0 67.5---
2024-02-24 04:40 pmESE 23.3 27.2----30.04- 71.4 73.0 67.5---
2024-02-24 04:30 pmESE 23.3 29.1----30.03- 71.6 73.0 67.6---
2024-02-24 04:20 pmESE 21.4 27.2 11.2 97.1ENE30.03- 71.6 73.0 67.8---
2024-02-24 04:10 pmESE 23.3 27.2 11.2-7.1ENE30.03- 71.8 73.0 67.6---
2024-02-24 04:00 pmESE 23.3 27.2----30.03-0.04 72.0 73.0 67.6---
2024-02-24 03:50 pmESE 21.4 27.2 11.5 97.1ENE30.03- 71.8 73.0 68.0---
2024-02-24 03:40 pmESE 21.4 27.2----30.03- 71.6 73.0 68.2---
2024-02-24 03:30 pmESE 21.4 27.2----30.03- 71.6 73.0 68.5---
2024-02-24 03:20 pmESE 21.4 27.2 10.8 97.1ENE30.02- 71.6 73.0 68.5---
2024-02-24 03:10 pmESE 23.3 31.1 10.8-7.1ENE30.03- 71.6 73.0 68.2---
2024-02-24 03:00 pmESE 21.4 27.2----30.03-0.05 72.0 73.0 68.5---
2024-02-24 02:50 pmESE 23.3 29.1 11.2 177.1NNE30.03- 72.1 73.0 68.4---
2024-02-24 02:40 pmESE 21.4 27.2 11.2-7.1NNE30.03- 72.0 73.0 68.4---
2024-02-24 02:30 pmESE 21.4 25.3----30.03- 72.1 73.0 68.5---
2024-02-24 02:20 pmESE 21.4 27.2 11.2 167.2 N30.04- 72.1 73.0 68.4---
2024-02-24 02:10 pmESE 21.4 27.2 11.2-7.2 N30.03- 72.1 73.0 68.5---
2024-02-24 02:00 pmESE 21.4 27.2----30.04-0.05 72.1 73.0 68.7---
2024-02-24 01:50 pmESE 19.4 25.3 11.8 97.4ENE30.04- 72.1 73.0 68.9---
2024-02-24 01:40 pm E 19.4 25.3----30.05- 71.6 73.0 68.5---
2024-02-24 01:10 pmESE 21.4 25.3 11.5-7.6 N30.06- 72.0 73.0 68.7---
2024-02-24 01:00 pm E 19.4 25.3----30.06-0.02 72.0- 68.7---
2024-02-24 12:50 pm E 19.4 23.3 12.1 97.6 E30.07- 72.1 73.0 68.7---
2024-02-24 12:40 pm E 19.4 25.3----30.07- 71.8 73.0 68.5---
2024-02-24 12:30 pm E 19.4 25.3----30.08- 71.8 73.0 68.2---
2024-02-24 12:20 pm E 21.4 25.3----30.08- 72.1 73.0 68.5---
2024-02-24 12:10 pm E 19.4 25.3----30.08- 72.3 72.9 68.4---
2024-02-24 12:00 pm E 19.4 25.3----30.08+0.02 72.3 72.9 68.2---
2024-02-24 11:50 am E 19.4 25.3 11.8 97.6ENE30.09- 72.3 72.9 68.2---
2024-02-24 11:40 am E 19.4 25.3 11.8-7.6ENE30.09- 72.5 72.9 68.4---
2024-02-24 11:30 amESE 19.4 25.3----30.09- 72.5 72.9 68.7---
2024-02-24 11:20 am E 19.4 25.3 11.5 177.5NNW30.10- 72.5 72.9 68.9---
2024-02-24 11:10 am E 19.4 23.3 11.5-7.5NNW30.09- 72.5 72.9 68.9---
2024-02-24 11:00 amESE 19.4 25.3----30.09+0.05 72.9 72.9 69.3---
2024-02-24 10:50 amESE 17.5 23.3 11.8 177.6 N30.10- 72.9 72.9 68.7---
2024-02-24 10:40 amESE 19.4 23.3----30.10- 72.7 72.9 68.7---
2024-02-24 10:30 amESE 17.5 23.3----30.10- 72.9 72.9 68.7---
2024-02-24 10:20 amESE 19.4 25.3 11.5 177.5NNW30.10- 72.5 72.9 68.4---
2024-02-24 10:10 amESE 17.5 23.3 11.5-7.5NNW30.09- 72.7 72.9 68.7---
2024-02-24 10:00 amESE 19.4 25.3----30.08+0.05 72.5 72.9 68.5---
2024-02-24 09:50 amESE 19.4 25.3 11.2 97.4 E30.08- 72.3 72.9 69.1---
2024-02-24 09:40 amESE 17.5 23.3----30.08- 72.0 72.9 69.1---
2024-02-24 09:30 amESE 19.4 25.3----30.08- 71.8 72.9 69.3---
2024-02-24 09:20 amESE 17.5 23.3 12.5 97.8ENE30.08- 72.1 72.9 69.4---
2024-02-24 09:10 am E 17.5 23.3 12.5-7.8ENE30.07- 72.5 72.9 69.4---
2024-02-24 09:00 amESE 19.4 23.3----30.06+0.05 72.5 72.9 68.9---
2024-02-24 08:50 amESE 19.4 25.3 11.8 177.7 N30.06- 72.5 72.9 68.5---
2024-02-24 08:40 amESE 19.4 25.3 11.8-7.7 N30.06- 72.3 72.9 68.5---
2024-02-24 08:30 amESE 19.4 25.3----30.06- 72.3 72.9 68.4---
2024-02-24 08:20 amESE 19.4 25.3 11.8 177.9NNW30.06- 72.3 72.9 68.4---
2024-02-24 08:10 amESE 19.4 25.3 11.8-7.9NNW30.05- 72.5 72.9 68.4---
2024-02-24 08:00 amESE 17.5 23.3----30.05+0.04 73.0 72.9 69.3---
2024-02-24 07:50 amESE 17.5 25.3 10.8 97.2ENE30.05- 73.0 72.9 68.4---
2024-02-24 07:40 amESE 19.4 25.3 10.8-7.2ENE30.04- 73.0 72.9 68.2---
2024-02-24 07:30 amESE 19.4 25.3----30.04- 72.9 72.9 67.8---
2024-02-24 07:20 amESE 19.4 25.3 11.8 97.5ENE30.03- 72.7 72.9 68.2---
2024-02-24 07:10 amESE 19.4 25.3 11.8-7.5ENE30.03- 72.7 72.9 68.2---
2024-02-24 07:00 amESE 19.4 25.3----30.03+0.03 73.0 72.9 68.5---
2024-02-24 06:50 amESE 19.4 23.3 11.2 177.5 N30.03- 72.7 72.9 68.2---
2024-02-24 06:40 amESE 17.5 23.3----30.02- 72.5 72.9 68.5---
2024-02-24 06:30 amESE 19.4 23.3----30.02- 72.3 72.9 68.5---
2024-02-24 06:20 amESE 19.4 25.3 10.8 87.0 E30.01- 72.3 72.9 68.2---
2024-02-24 06:10 amESE 17.5 25.3 10.8-7.0 E30.01- 72.9 72.9 68.4---
2024-02-24 06:00 amESE 19.4 25.3----30.01+0.00 73.0 72.9 66.9---
2024-02-24 05:50 amESE 19.4 25.3 10.8 177.5NNW30.01- 73.0 72.7 66.7---
2024-02-24 05:40 amESE 19.4 25.3 10.8-7.5NNW30.02- 72.9 72.7 67.1---
2024-02-24 05:30 amESE 17.5 23.3----30.01- 72.5 72.7 67.6---
2024-02-24 05:20 am SE 17.5 23.3----30.01- 72.5 72.7 67.8---
2024-02-24 05:10 amESE 19.4 23.3----30.01- 72.0 72.7 67.3---
2024-02-24 05:00 amESE 15.5 23.3----30.00-0.04 72.0 72.7 68.5---
2024-02-24 04:50 amESE 17.5 21.4 10.5 177.2 N30.01- 72.1 72.7 68.4---
2024-02-24 04:40 amESE 19.4 25.3 10.5-7.2 N30.00- 72.3 72.7 67.6---
2024-02-24 04:30 amESE 21.4 25.3----30.00- 72.1 72.7 67.1---
2024-02-24 04:20 amESE 21.4 25.3 11.2 177.0 N30.00- 71.6 72.7 66.4---
2024-02-24 04:10 amESE 21.4 27.2 11.2-7.0 N30.01- 72.0 72.7 67.3---
2024-02-24 04:00 amESE 19.4 25.3----30.00-0.04 72.7 72.9 68.0---
2024-02-24 03:50 amESE 19.4 25.3 10.5 177.0NNW30.01- 72.5 72.7 67.6---
2024-02-24 03:40 am SE 19.4 23.3----30.01- 72.5 72.9 67.8---
2024-02-24 03:30 amESE 19.4 25.3----30.01- 72.9 72.9 68.0---
2024-02-24 03:20 amESE 21.4 25.3 10.5 177.3 N30.01- 73.0 72.9 68.0---
2024-02-24 03:10 amESE 21.4 27.2 10.5-7.3 N30.01- 73.0 72.9 67.8---
2024-02-24 03:00 amESE 19.4 25.3----30.02-0.01 72.9 72.9 67.8---
2024-02-24 02:50 amESE 19.4 23.3 9.8 177.1NNW30.02- 72.9 72.9 68.2---
2024-02-24 02:40 am SE 19.4 23.3 9.8-7.1NNW30.03- 72.9 72.9 68.0---
2024-02-24 02:30 am SE 17.5 23.3----30.04- 72.9 72.9 67.6---
2024-02-24 02:20 am SE 19.4 25.3 9.8 197.1 N30.04- 72.9 72.9 67.5---
2024-02-24 02:10 amESE 19.4 23.3 9.8-7.1 N30.03- 73.0 72.9 68.0---
2024-02-24 02:00 am SE 17.5 21.4----30.04+0.01 73.0 72.9 68.0---
2024-02-24 01:50 amESE 17.5 23.3 9.8 197.3 N30.04- 73.0 72.9 67.8---
2024-02-24 01:40 amESE 19.4 23.3----30.04- 72.9 72.9 67.8---
2024-02-24 01:30 amESE 19.4 25.3----30.04- 72.7 72.9 67.8---
2024-02-24 01:20 amESE 19.4 25.3 9.2 86.8 E30.03- 72.5 72.9 68.2---
2024-02-24 01:10 amESE 19.4 25.3 9.2-6.8 E30.04- 72.5 72.9 68.4---
2024-02-24 01:00 amESE 19.4 25.3----30.04+0.00 72.5 72.9 68.4---
2024-02-24 12:50 amESE 19.4 27.2 9.5 197.2NNW30.04- 72.3 72.9 68.2---

Detailed Wave Summary
for 51001 as of (1:10 am HAST)
1110 GMT on 02/25/2024:

These wave data are displayed in rounded times.

     

Click on the graph icon in the table below to see a time series plot of the last five days of that observation.

5-day plot - Significant Wave Height Significant Wave Height (WVHT): 12.1 ft
5-day plot - Swell Height Swell Height (SwH): 8.5 ft
5-day plot - Swell Period Swell Period (SwP): 14.8 sec
5-day plot - Swell Direction Swell Direction (SwD):NNW
5-day plot - Wind Wave Height Wind Wave Height (WWH): 8.5 ft
5-day plot - Wind Wave Period Wind Wave Period (WWP): 8.3 sec
5-day plot - Wind Wave Direction Wind Wave Direction (WWD): E
5-day plot - Wave Steepness Wave Steepness (STEEPNESS): STEEP
5-day plot - Average Wave Period Average Wave Period (APD): 7.3 sec
Previous observations
TIME
(HAST)
5-day plot - Wave Height
WVHT
ft
5-day plot - Swell Height
SwH
ft
5-day plot - Swell Period
SwP
sec
5-day plot - Swell Direction
SwD
 
5-day plot - Wind Wave Height
WWH
ft
5-day plot - Wind Wave Period
WWP
sec
5-day plot - Wind Wave Direction
WWD
 
5-day plot - Wave Steepness
STEEPNESS
 
5-day plot - Average Wave Period
APD
sec
2024-02-25 12:40 am 11.5 8.2 9.1 E 7.9 5.6 ESE STEEP 7.1
2024-02-25 12:10 am 10.8 7.2 16.0NNW 8.2 8.3 ESE STEEP 6.9
2024-02-24 11:40 pm 11.2 8.2 9.1 E 7.5 4.2 ESE STEEP 7.1
2024-02-24 11:10 pm 11.5 8.2 16.0- 7.9 8.3 E SWELL 7.5
2024-02-24 10:40 pm 10.2 7.5 9.1 E 6.9 6.7 E STEEP 7.0
2024-02-24 10:10 pm 10.5 7.5 9.1 E 7.5 6.7 ESE STEEP 7.0
2024-02-24 09:40 pm 10.8 7.5 16.0 N 7.5 5.0 ESE SWELL 7.1
2024-02-24 09:10 pm 12.5 10.2 16.0 N 7.5 6.2 E SWELL 7.8
2024-02-24 08:40 pm 10.8 8.5 9.1 E 6.6 7.1 ESE STEEP 7.3
2024-02-24 08:10 pm 11.5 8.2 13.8 N 8.2 8.3 E STEEP 7.3
2024-02-24 07:40 pm 11.8 9.8 16.0 N 6.2 6.7 E SWELL 7.6
2024-02-24 07:10 pm 10.5 7.9 9.1 E 7.2 7.1 E STEEP 7.1
2024-02-24 06:40 pm 11.2 7.9 9.1 E 7.9 6.2 ESE STEEP 7.1
2024-02-24 06:10 pm 11.2 7.9 17.4 N 7.9 7.1 E SWELL 7.1
2024-02-24 05:40 pm 11.8 9.5 9.1 E 6.9 7.7 E STEEP 7.4
2024-02-24 05:10 pm 12.1 8.9 9.1 E 8.2 6.2 ESE STEEP 7.4
2024-02-24 04:40 pm 11.5 8.2 9.1ENE 8.2 5.6 E STEEP 7.1
2024-02-24 04:10 pm 11.2 7.9 9.1ENE 7.9 6.7 ESE STEEP 7.1
2024-02-24 03:40 pm 11.5 8.2 9.1ENE 8.2 7.1 ESE STEEP 7.1
2024-02-24 03:10 pm 10.8 8.5 9.1ENE 6.9 5.6 ESE STEEP 7.1
2024-02-24 02:40 pm 11.2 7.9 17.4NNE 7.9 6.7 ESE SWELL 7.1
2024-02-24 02:10 pm 11.2 8.9 16.0 N 6.9 5.3 ESE SWELL 7.2
2024-02-24 01:40 pm 11.8 8.9 9.1ENE 7.9 6.7 E STEEP 7.4
2024-02-24 01:10 pm 11.5 8.2 16.0 N 7.9 8.3 E SWELL 7.6
2024-02-24 12:40 pm 12.1 9.2 9.1 E 7.9 5.6 ESE STEEP 7.6
2024-02-24 11:40 am 11.8 8.9 9.1ENE 7.9 5.6 ESE STEEP 7.6
2024-02-24 11:10 am 11.5 8.5 17.4NNW 7.5 7.1 ESE SWELL 7.5
2024-02-24 10:40 am 11.8 8.9 17.4 N 7.5 6.7 ESE SWELL 7.6
2024-02-24 10:10 am 11.5 9.5 17.4NNW 6.6 6.7 ESE SWELL 7.5
2024-02-24 09:40 am 11.2 9.2 9.1 E 6.2 6.7 E STEEP 7.4
2024-02-24 09:10 am 12.5 9.8 9.1ENE 7.9 6.7 ESE STEEP 7.8
2024-02-24 08:40 am 11.8 8.9 17.4 N 7.5 5.6 ESE SWELL 7.7
2024-02-24 08:10 am 11.8 10.5 17.4NNW 5.6 6.2 ESE SWELL 7.9
2024-02-24 07:40 am 10.8 8.9 9.1ENE 6.2 6.2 ESE STEEP 7.2
2024-02-24 07:10 am 11.8 9.5 9.1ENE 6.6 5.6 ESE STEEP 7.5
2024-02-24 06:40 am 11.2 7.9 17.4 N 8.2 8.3 E AVERAGE 7.5
2024-02-24 06:10 am 10.8 8.2 8.3 E 6.9 4.8 ESE STEEP 7.0
2024-02-24 05:40 am 10.8 8.2 17.4NNW 7.2 6.7 SE SWELL 7.5
2024-02-24 04:40 am 10.5 8.2 17.4 N 6.6 5.6 ESE SWELL 7.2
2024-02-24 04:10 am 11.2 7.5 17.4 N 7.9 6.7 SE AVERAGE 7.0
2024-02-24 03:40 am 10.5 6.9 17.4NNW 7.9 6.7 ESE AVERAGE 7.0
2024-02-24 03:10 am 10.5 7.5 17.4 N 7.5 8.3 ESE SWELL 7.3
2024-02-24 02:40 am 9.8 7.2 17.4NNW 6.6 7.7 ESE SWELL 7.1
2024-02-24 02:10 am 9.8 7.5 19.0 N 6.2 6.2 SE SWELL 7.1
2024-02-24 01:40 am 9.8 8.5 19.0 N 5.6 6.2 SE SWELL 7.3
2024-02-24 01:10 am 9.2 7.2 8.3 E 5.6 5.0 SE STEEP 6.8

Plot of wave energy versus frequency (and period)